FENGYUN 3A

Last updated on Sat Aug 15 2026 00:02:40 GMT+0000 (Coordinated Universal Time)

1 32958U 08026A 26226.40744230 .00000010 00000+0 25482-4 0 9990 2 32958 98.6897 166.1560 0008100 327.4009 32.6667 14.19581500943667
UTC large
Height (km)
Speed (km/s)
/
Latitude / Longitude
Inclination (degrees)
Orbital Period (minutes)
Azimuth
Elevation
Range (km)
Doppler Factor

Next 0 passes for location: London (51.5072 / 0.1276)

No passes found over London.
FENGYUN 3A